Flag for U.S.A. Weather past 2 weeks in Tyler, Texas, U.S.A.

Now
72 °F

Clear.


Feels Like: 72 °F
Forecast: 68 / 90 °F
Wind: No wind

Location: Tyler Pounds Field

Current Time: Sep 21, 2014 at 3:32:07 AM

Latest Report: Sep 21, 2014 at 2:53 AM


Visibility: 10 mi

Pressure: 30.00 "Hg

Humidity: 81%

Dew point: 66 °F

Location of TylerLocation

Historic Weather in Tyler — Graph

°F

Tyler temperature yesterday

Maximum temperature yesterday: 90 °F (at 2:53 PM)
Minimum temperature yesterday: 70 °F (at 6:53 AM)
Average temperature yesterday: 79 °F

Past Weeks' High & Low Weather Summary

 TemperatureHumidityPressure
High96 °F (Sep 6, 3:53 PM)100% (Sep 6, 11:01 PM)30.24 "Hg (Sep 6, 11:01 PM)
Low62 °F (Sep 13, 5:53 AM)36% (Sep 6, 3:53 PM)29.77 "Hg (Sep 10, 5:53 PM)
Average78 °F76%29.99 "Hg
* Reported Sep 6 1:53 AM — Sep 21 1:53 AM, Tyler, Weather by CustomWeather, © 2014

Note: Actual official high and low records may vary slightly from our data, if they occured in-between our weather recording intervals... More about our weather records

Advertising

Tyler weather history for previous 24 hours

 ConditionsComfort  
Time TempWeatherWind HumidityBarometerVisibility
1:53 AM
Sep 21
73 °FClear.No wind79%30.00 "Hg10 mi
12:53 AM73 °FClear.No wind81%29.99 "Hg10 mi
11:53 PM
Sep 20
76 °FClear.No wind72%29.99 "Hg10 mi
10:53 PM77 °FClear.3 mph71%29.98 "Hg10 mi
9:53 PM78 °FClear.No wind69%29.98 "Hg10 mi
8:53 PM78 °FClear.5 mph69%29.95 "Hg10 mi
7:53 PM82 °FSunny.No wind58%29.93 "Hg10 mi
6:53 PM85 °FSunny.5 mph51%29.92 "Hg10 mi
5:53 PM89 °FSunny.9 mph42%29.92 "Hg10 mi
4:53 PM90 °FSunny.8 mph42%29.93 "Hg10 mi
3:53 PM89 °FPassing clouds.7 mph43%29.95 "Hg10 mi
2:53 PM90 °FSunny.7 mph43%29.96 "Hg10 mi
1:53 PM89 °FSunny.10 mph43%29.98 "Hg10 mi
12:53 PM88 °FSunny.14 mph43%29.99 "Hg10 mi
7:53 AM71 °FFog.3 mph90%29.99 "Hg5 mi
6:53 AM70 °FFog.No wind93%29.97 "Hg6 mi
5:53 AM71 °FClear.No wind90%29.96 "Hg8 mi
4:53 AM71 °FClear.No wind90%29.94 "Hg9 mi
3:53 AM72 °FClear.3 mph91%29.94 "Hg10 mi
Weather by CustomWeather, © 2014

See weather overviewHow to use our weather pages